SCP
0 0 0 0 0 0 0 0 0 0 0 0 0 0 0 0 0 1 1 1 1 1 1 1 1 2 1 1 1 1 1 1 0 1 1 1 1 1 0 0 0 0 0 0
0 0 0 0 0 0 0 0 0 0 0 0 0 0 0 0 0 1 1 1 1 1 1 1 1 2 2 1 1 1 1 1 1 1 1 1 1 1 1 1 1 0 0 1
0 0 0 0 0 0 0 0 0 0 0 0 0 0 0 0 0 0 1 1 1 2 1 1 1 1 1 1 1 1 1 1 1 1 1 1 1 1 1 1 1 1 1 1
0 0 0 0 0 0 0 0 0 0 0 0 0 0 0 0 0 0 1 1 1 2 2 2 1 1 1 1 1 1 1 1 1 1 2 1 1 1 1 1 1 1 1 1
0 0 0 0 0 0 0 0 0 0 0 0 0 0 0 0 0 0 1 1 1 3 3 2 2 1 1 2 2 2 2 1 1 2 2 2 2 2 2 2 2 1 1 1
0 0 0 0 0 0 0 0 0 0 0 0 0 0 0 0 0 1 1 1 1 2 3 3 2 1 1 2 2 2 2 1 2 2 2 2 2 2 2 2 2 1 1 1
0 0 0 0 0 0 0 0 0 0 0 0 0 0 0 0 0 1 1 2 2 2 4 4 3 2 2 2 2 2 2 2 2 3 3 3 3 3 2 1 1 1 1 2
0 0 0 0 0 0 0 0 0 0 0 0 1 1 1 1 1 1 1 2 2 3 4 5 4 3 3 3 3 3 2 2 2 3 4 4 5 5 3 1 1 1 1 2
0 0 0 0 1 0 0 0 0 0 0 0 1 1 1 1 1 1 2 2 3 4 4 5 4 3 3 3 4 4 3 3 3 3 4 4 6 6 5 2 1 1 1 2
0 0 0 1 1 1 0 0 0 0 0 0 0 1 1 1 1 1 2 2 3 4 4 4 4 4 4 4 5 5 5 5 5 5 4 4 5 6 6 4 2 2 2 2
0 0 0 1 1 1 1 0 0 0 0 0 0 1 1 1 1 1 2 2 3 3 3 4 5 6 6 6 7 8 8 8 7 6 4 3 4 6 7 6 4 3 3 2
0 0 0 1 1 1 1 0 0 0 0 0 0 1 1 1 1 2 2 2 3 3 3 4 6 9 9 9 9 10 10 9 8 6 5 4 4 6 8 7 6 5 4 3
0 0 1 1 1 1 1 0 0 0 0 0 0 1 1 2 2 2 3 3 3 3 4 5 7 9 10 10 10 10 9 8 7 6 5 4 4 6 9 9 7 5 4 4
0 0 0 1 1 1 1 1 0 0 0 0 0 1 1 2 2 3 3 3 3 4 5 5 6 8 9 10 10 9 8 7 7 6 5 4 5 7 9 9 6 5 4 4
0 0 0 1 1 1 1 1 1 0 0 0 1 1 2 2 3 3 3 3 4 5 6 6 7 8 9 9 8 9 8 7 6 5 4 4 5 7 9 9 7 5 5 5
0 0 0 1 1 1 1 1 1 1 1 1 1 1 2 3 3 3 4 4 4 6 7 7 8 9 9 9 8 8 8 8 8 7 5 4 5 8 10 10 8 5 5 5
0 0 0 1 1 1 1 1 1 1 1 1 1 2 3 4 4 4 4 5 5 6 7 7 7 8 8 9 9 8 8 9 9 8 6 5 6 8 12 12 9 7 5 5
0 0 0 0 1 1 1 1 1 1 1 1 1 2 4 5 5 5 6 6 6 6 6 6 7 7 7 8 8 8 8 9 9 7 6 6 6 8 11 11 10 8 7 6
0 0 0 0 0 1 1 1 1 1 1 2 2 3 5 6 6 6 6 6 6 6 6 6 6 6 6 7 7 7 7 7 7 6 6 6 6 7 8 9 9 9 7 6
0 0 0 0 0 1 1 1 1 1 1 2 3 4 5 5 5 6 6 6 6 6 6 5 5 5 5 5 5 5 5 5 5 5 6 7 7 8 7 7 7 7 6 5
0 0 0 0 0 0 0 1 1 1 1 2 3 4 4 4 4 5 5 6 6 6 5 4 4 3 3 4 5 5 5 4 4 5 6 7 9 9 9 8 7 6 6 5
0 0 0 0 0 0 0 1 1 1 1 2 3 3 4 3 4 4 5 5 5 4 4 3 3 2 3 4 5 5 5 4 4 5 6 8 10 11 10 9 8 8 6 5
0 1 1 1 1 1 1 1 1 1 2 2 3 3 3 4 4 4 4 4 4 4 3 2 2 2 3 4 5 5 4 4 5 5 6 9 10 11 11 10 9 9 8 7
1 1 2 2 2 2 1 1 1 1 2 3 3 3 3 3 4 4 4 4 3 3 2 2 2 3 3 3 3 3 2 2 3 5 6 7 7 8 8 7 8 9 10 10
1 2 3 3 2 2 2 1 1 1 2 4 4 4 4 4 3 4 4 3 2 2 1 1 2 2 2 2 1 1 1 1 2 3 4 4 3 3 3 3 4 6 8 9
1 2 2 2 2 2 1 1 1 1 3 5 5 6 6 4 3 3 3 2 1 1 1 1 1 1 1 1 1 0 0 0 1 1 2 2 2 2 1 1 1 3 5 5
Wind_Speed
3 5 3 7 7 6 5 4 5 5 3 4 6 6 5 8 9 9 9 9 10 11 8 7 8 8 7 7 7 7 6 5 5 3 3 2 2 2 2 2 3 4 4 4
4 2 7 4 4 3 4 3 4 3 1 3 3 4 4 8 12 11 12 12 11 9 6 7 8 8 9 9 8 8 7 6 6 4 3 2 2 2 2 1 2 3 4 4
6 6 3 4 3 3 3 5 5 3 1 3 2 4 3 4 5 7 9 9 10 12 12 10 10 10 9 10 11 10 9 8 7 5 3 2 2 1 1 1 1 2 4 4
5 4 3 2 3 5 5 6 5 4 4 1 2 3 7 4 4 8 10 9 11 12 11 11 11 11 12 12 10 9 9 8 7 6 5 5 4 3 3 2 2 2 3 3
5 3 4 4 6 7 5 1 4 4 4 2 1 2 8 1 5 9 11 12 12 12 12 12 13 13 11 10 9 8 8 7 7 7 7 6 4 3 2 2 2 2 1 2
5 3 4 6 3 5 5 7 7 6 5 0 4 4 7 5 8 7 9 11 12 12 12 11 10 9 8 8 8 8 8 8 8 8 7 7 6 5 4 3 3 2 1 1
4 3 3 3 2 2 5 7 4 4 3 6 2 3 10 8 7 8 9 9 10 10 10 10 10 10 10 10 10 9 9 8 8 8 8 7 7 6 5 4 4 3 2 2
3 5 4 3 6 6 5 10 9 6 6 5 1 6 9 7 5 5 6 5 6 9 10 11 12 11 11 11 11 10 10 9 8 8 8 6 6 5 4 4 4 4 4 4
6 6 4 2 2 8 6 4 6 7 3 1 5 7 9 4 4 4 3 2 5 8 10 10 10 11 11 11 12 11 10 8 8 9 7 6 6 6 5 5 4 3 3 3
7 4 5 3 3 4 5 8 6 7 7 4 4 5 6 6 6 4 3 3 4 5 6 7 8 10 10 10 9 9 9 8 8 7 7 7 7 7 6 5 5 4 4 4
4 4 3 2 2 3 3 4 5 5 5 7 4 8 7 7 5 4 4 3 3 4 6 7 6 7 7 6 7 7 7 6 6 7 7 6 5 6 6 5 6 5 4 4
2 5 2 4 3 1 4 6 7 6 4 4 5 9 4 4 4 3 2 1 1 1 3 5 5 5 6 6 6 6 6 6 6 6 6 6 5 5 5 5 5 5 5 5
3 5 2 5 5 3 2 2 4 6 5 5 5 8 3 2 2 1 1 1 1 2 3 4 5 6 5 5 5 5 5 5 4 5 5 5 5 6 6 6 5 5 5 4
5 4 6 8 7 3 1 1 3 6 4 5 7 6 5 3 2 2 1 1 2 3 3 3 4 5 4 4 5 4 4 4 4 4 5 5 5 6 6 5 5 5 4 4
5 3 2 4 3 2 2 3 4 4 6 8 7 6 6 4 2 1 0 2 3 3 3 3 3 3 3 3 3 4 4 4 4 4 4 4 3 3 3 4 4 4 4 5
4 3 1 1 1 1 1 2 2 2 2 3 2 4 4 1 1 1 1 2 2 2 2 3 3 3 3 3 3 3 3 4 4 4 4 3 3 3 3 3 4 4 4 4
1 3 2 3 3 1 2 3 3 2 2 4 6 6 2 2 2 2 2 2 2 2 2 3 3 3 3 3 3 3 3 3 4 4 3 2 3 4 4 4 4 5 5 4
4 3 3 1 1 4 5 1 2 3 1 1 2 2 2 3 1 0 1 2 1 1 1 2 3 3 3 3 2 2 2 2 2 2 1 1 2 3 3 3 4 4 4 4
4 6 4 3 3 3 4 2 1 2 1 1 2 1 2 2 3 3 1 1 1 1 1 1 2 3 3 3 3 3 1 1 2 1 1 2 2 2 2 3 4 3 3 4
4 4 5 3 3 5 6 3 2 3 2 2 1 1 1 2 2 2 1 1 2 2 2 2 2 3 3 2 3 3 2 1 1 1 1 1 1 2 3 3 3 2 4 5
4 4 3 3 3 5 4 5 1 3 5 2 1 2 2 2 3 2 0 1 2 2 2 2 2 2 1 1 3 2 1 1 1 1 1 1 1 2 2 2 2 2 3 3
3 2 2 3 3 6 4 3 1 4 2 1 1 1 1 1 1 1 2 1 1 2 2 2 3 2 2 2 2 1 1 2 1 1 0 0 1 1 1 2 1 2 2 2
2 4 4 5 5 3 2 1 3 1 1 1 1 0 2 2 1 1 1 1 1 1 1 1 2 2 2 2 1 0 2 2 2 1 1 1 1 1 1 1 2 1 1 2
1 1 2 1 3 2 3 2 2 1 1 1 1 1 2 2 2 1 1 1 1 1 1 0 2 2 2 2 1 1 1 1 0 0 1 1 1 1 1 1 1 1 1 2
3 0 1 2 3 3 3 2 2 2 2 2 1 1 2 2 2 2 2 2 2 1 1 1 1 1 1 1 1 2 1 1 1 1 1 1 1 1 1 1 1 1 1 2
3 4 4 5 5 3 4 3 2 1 2 1 1 1 0 2 3 3 2 2 1 1 1 1 1 1 1 0 1 2 2 1 1 1 2 1 1 1 1 0 1 3 1 1
Wind_Direction
63 85 180 208 195 188 177 181 229 242 205 173 215 242 223 187 191 198 201 202 206 213 207 190 187 185 178 176 177 181 180 178 160 153 162 166 198 200 202 204 195 193 194 185
48 243 223 198 175 154 161 188 239 277 172 166 219 255 232 197 202 203 203 207 209 207 197 193 188 184 184 186 188 188 188 183 178 176 169 164 164 180 192 199 190 192 194 190
189 232 186 151 155 159 194 196 213 207 45 48 86 314 269 240 218 218 217 211 207 203 201 197 191 191 188 192 193 195 191 187 183 170 138 117 101 87 128 175 193 200 197 192
220 241 173 176 204 169 237 221 187 162 124 266 122 264 282 243 242 228 224 214 212 209 201 196 193 194 196 198 193 191 186 185 181 170 167 168 176 191 200 190 194 200 192 190
231 201 174 204 220 175 210 146 133 129 127 78 31 171 282 289 246 241 227 217 214 209 202 198 197 197 196 191 187 187 181 184 182 180 182 181 190 197 181 167 178 197 199 196
237 229 201 208 212 162 135 72 58 53 74 144 230 175 269 239 227 242 232 220 211 204 201 200 196 186 183 178 179 179 181 190 185 185 187 189 192 188 179 188 190 199 202 207
299 282 238 168 123 74 105 94 45 12 19 245 235 189 246 249 237 234 238 227 211 198 194 193 186 182 178 177 181 180 184 192 189 188 194 196 194 187 193 199 200 196 201 209
200 276 244 189 179 183 171 144 161 188 208 254 253 226 251 258 266 265 259 241 205 192 193 194 190 186 183 181 181 181 186 191 187 192 200 197 191 187 196 202 200 202 209 213
179 248 286 238 196 148 142 168 163 134 146 194 267 279 298 282 292 289 288 250 207 198 194 193 185 180 180 181 186 185 184 185 187 193 194 193 190 189 194 196 200 205 210 207
162 219 286 304 67 38 135 141 105 125 148 216 271 265 251 269 270 286 296 276 243 207 192 187 183 182 180 184 179 174 180 185 187 189 196 200 196 194 188 182 199 208 210 207
140 165 293 25 147 188 94 97 108 118 150 158 215 260 232 228 236 242 254 251 242 206 188 179 176 174 168 160 159 165 172 175 183 191 196 198 195 192 185 194 204 206 202 197
123 126 229 262 260 211 158 160 145 151 202 174 176 258 283 237 244 229 241 286 329 143 156 152 146 142 148 148 151 161 166 176 190 191 188 190 187 183 193 205 209 198 199 200
120 108 70 345 342 5 85 135 137 123 118 151 173 258 317 353 337 308 251 8 54 86 96 108 119 127 132 141 150 160 162 170 179 178 184 189 190 191 199 202 197 197 202 201
109 113 163 195 215 216 224 195 154 130 145 191 215 242 299 314 304 318 338 73 82 89 99 107 116 119 135 147 147 148 151 156 165 165 180 192 203 202 200 200 190 197 201 201
94 133 206 233 238 206 211 231 194 186 186 187 218 216 247 247 234 247 87 81 76 76 87 99 110 118 127 128 134 142 145 152 158 161 181 199 204 197 192 195 191 199 204 213
62 129 129 288 259 197 218 283 215 205 197 203 188 248 259 239 101 80 82 95 89 90 106 109 119 133 141 145 141 136 147 161 162 170 189 189 178 186 196 200 189 189 201 205
74 123 119 243 286 44 269 251 206 189 218 186 200 224 183 132 166 198 196 151 146 146 140 137 139 151 152 146 147 156 168 165 163 163 169 181 181 187 198 206 194 192 197 192
153 131 140 181 103 217 236 244 162 148 295 241 198 207 177 175 175 295 164 138 125 108 120 132 127 119 129 131 132 154 147 140 145 141 160 185 206 201 198 200 199 196 194 196
165 145 132 138 178 255 283 268 177 156 289 299 178 161 111 103 67 13 11 104 142 152 140 122 121 119 119 126 127 120 121 119 117 141 193 205 199 213 218 215 212 201 204 212
64 102 121 134 161 216 245 294 299 121 273 302 141 162 151 98 111 258 322 64 65 58 58 59 66 93 103 109 118 121 133 132 155 198 228 230 215 202 218 220 217 206 211 217
31 38 105 154 199 248 274 303 340 178 233 266 189 185 167 184 205 213 109 71 89 90 86 84 85 82 80 82 99 101 76 272 258 238 218 215 224 215 217 222 215 208 206 211
166 147 165 147 183 247 319 5 164 227 268 252 199 179 151 158 113 109 98 85 76 67 58 60 72 56 35 52 92 81 292 286 302 302 276 254 228 219 201 194 218 208 193 205
189 191 184 187 210 248 295 260 285 266 254 259 181 136 124 124 133 144 128 118 90 70 51 64 93 70 26 26 72 156 284 299 322 345 334 336 351 327 269 221 220 214 202 214
289 121 135 266 276 289 306 308 311 303 251 248 151 132 137 160 183 185 185 179 164 109 73 69 84 73 22 5 21 308 294 296 316 342 325 339 341 331 336 321 264 233 233 226
246 156 115 265 270 310 315 310 314 348 3 29 59 125 164 175 207 211 213 221 219 200 174 135 139 160 247 340 348 330 341 22 24 327 306 327 321 293 318 350 341 263 251 223
218 196 191 227 228 211 257 278 306 320 315 326 38 25 27 185 226 234 225 232 227 210 204 174 180 205 236 253 337 334 347 25 60 351 337 332 325 301 250 154 15 19 338 32